SL-16 DEB, 39305

Orbit data source: Space-Track

SL-16 DEB, 39305 is space debris in LEO originally from a launch on Fri, 25 Dec 1992 UTC launched from the Tyuratam Missile And Space Complex (TTMTR). Debris objects in space refer to the collection of defunct objects orbiting the Earth. Examples of debris include non-operational satellites, rocket bodies, and fragments generated from explosions, collisions, or faulty payload assembly.

Loading next visibility...
Identifier
39305, 1992-093JW
Orbit
LEO
Country
Flag of CISCIS
Related business
Manufacturer
Unknown
Mission
Spacecraft
Bus & Motor
Unknown
Mass
Unknown
Launch date (UTC)
1992-12-25 (33 years ago)
Launch vehicle
Unknown
Launch site
Tyuratam Missile And Space Complex (TTMTR)
Object type
Payload
Rocket body
Debris
Shape & HBR
Unknown shape, 0.1 m
Radar Cross Section
Small (<0.1 m²)

Expand to show TLE details & history
Last TLE update: 3 weeks ago

TLE from 3 weeks ago
0 SL-16 DEB
1 39305U 92093JW  26111.72980847  .00000086  00000-0  82684-4 0  9995
2 39305  70.9587 116.9059 0089169  90.7125 270.4209 14.02404719249322
Epoch: 2026-04-21T17:30Z
TLE epoch observation values (Epoch: 2026-04-21T17:30:55.451Z)
Latitude
-0.00002°
Longitude
4.37344°
Altitude
887.965 km
Speed
7.408 km/s
True Right ascension
07h 47m 37s
True Declination
0° 00' 00"
Sunlit
Object was in daylight at epoch
Visualization orbit readout
Latitude
Unknown
Longitude
Unknown
Altitude
Unknown
Speed
Unknown
Apparent Right ascension
Unknown
Apparent Declination
Unknown
Sunlit
N/A
Visualization observer readout
Local Sidereal Time
18:39:27
Azimuth
Unknown
Elevation
Unknown
Doppler factor
Unknown
Orbital elements
Apogee altitude
948.172 km
Perigee altitude
818.67 km
Semi-major axis
7,261.558 km
Eccentricity
0.00892
Inclination
70.9587°
RAAN
116.9059°
Arg. of periapsis
90.7125°
True anomaly
269.3991°
Mean anomaly
270.4209°
Eccentric anomaly
269.91°
Mean motion
3.50751 °/min
Orbital period
102.64 mins
BSTAR
0.000082684
Loading maneuver chart data...
Computing Atmospheric mass density...
Loading historical data...
Loading historical data...
Loading historical data...
Loading historical data...
Loading historical data...
Loading historical data...
Loading historical data...

Documentation

Showing up to 5 results
|